Location: L�Ave Maria
(50.7161°N, 1.5911°E)
Time: 00:25:43
(UTC+00:00)

Terra - Pass Details

Date: 10 July 2020
Orbit: 701 x 703 km, 98.2° (Epoch: 03 August)

Event Time Altitude Azimuth Distance (km) Brightness Sun altitude
Exits shadow 20:50:21 - 133° (SE) 2,377 3.9 -6.2°
Reaches altitude 10° 20:50:55 10° 130° (SE) 2,170 3.7 -6.2°
Maximum altitude 20:55:14 36° 65° (ENE) 1,114 2.7 -6.7°
Drops below altitude 10° 20:59:35 10° 360° (N) 2,183 5.2 -7.2°
Sets 21:01:59 0° 352° (N) 3,106 6.2 -7.4°
